Flag for Brazil Weather past 2 weeks in Campo Grande, Mato Grosso Do Sul, Brazil

Now
75 °F

Passing clouds.


Feels Like: 75 °F
Forecast: 69 / 82 °F
Wind: 3 mph from Northwest

Location: Campo Grande Aeroporto

Current Time: Mar 29, 2015 at 9:42:01 PM

Latest Report: Mar 29, 2015 at 9:00 PM


Visibility: N/A

Pressure: 30.01 "Hg

Humidity: 83%

Dew point: 70 °F

Location of Campo GrandeLocation

Historic Weather in Campo Grande — Graph

°F

Campo Grande temperature yesterday

Maximum temperature yesterday: 84 °F (at 3:00 PM)
Minimum temperature yesterday: 68 °F (at 6:00 AM)
Average temperature yesterday: 75 °F

Past Weeks' High & Low Weather Summary

 TemperatureHumidityPressure
High90 °F (Mar 17, 2:00 PM)100% (Mar 15, 2:00 PM)30.12 "Hg (Mar 15, 2:00 PM)
Low34 °F (Mar 15, 2:00 PM)25% (Mar 15, 3:00 PM)29.80 "Hg (Mar 20, 4:00 PM)
Average76 °F72%29.97 "Hg
* Reported Mar 14 8:00 PM — Mar 29 8:00 PM, Campo Grande, Weather by CustomWeather, © 2015

Note: Actual official high and low records may vary slightly from our data, if they occured in-between our weather recording intervals... More about our weather records

Advertising

Campo Grande weather history for previous 24 hours

 ConditionsComfort  
Time TempWeatherWind HumidityBarometerVisibility
8:00 PM
Sun, Mar 29
75 °FPassing clouds.6 mph83%29.98 "HgN/A
7:00 PM77 °FPassing clouds.5 mph79%29.98 "HgN/A
6:00 PM79 °FPassing clouds.6 mph70%29.95 "HgN/A
5:00 PM82 °FPassing clouds.8 mph62%29.95 "HgN/A
4:00 PM82 °FScattered clouds.8 mph66%29.95 "HgN/A
3:00 PM82 °FScattered clouds.8 mph62%29.95 "HgN/A
2:00 PM84 °FBroken clouds.9 mph62%29.98 "HgN/A
1:00 PM82 °FBroken clouds.7 mph66%30.01 "HgN/A
12:00 PM82 °FBroken clouds.2 mph66%30.04 "HgN/A
11:00 AM81 °FBroken clouds.2 mph70%30.07 "HgN/A
10:00 AM77 °FBroken clouds.No wind79%30.09 "HgN/A
9:00 AM75 °FBroken clouds.3 mph83%N/AN/A
8:00 AM73 °FBroken clouds.6 mph89%30.07 "HgN/A
7:00 AM72 °FPartly sunny.6 mph94%30.07 "HgN/A
6:00 AM70 °FPartly sunny.5 mph100%30.04 "HgN/A
5:00 AM70 °FPartly sunny.8 mph100%30.01 "HgN/A
4:00 AM72 °FPassing clouds.6 mph88%30.01 "HgN/A
3:00 AM70 °FPassing clouds.2 mph94%30.01 "HgN/A
2:00 AM70 °FPassing clouds.No wind94%30.04 "HgN/A
1:00 AM70 °FPassing clouds.No wind94%30.04 "HgN/A
12:00 AM72 °FClear.3 mph88%30.04 "Hg10 mi
11:00 PM
Sat, Mar 28
72 °FClear.3 mph88%30.04 "Hg10 mi
10:00 PM72 °FPassing clouds.3 mph88%30.07 "HgN/A
9:00 PM73 °FPassing clouds.6 mph83%30.07 "HgN/A
Weather by CustomWeather, © 2015

See weather overviewHow to use our weather pages